period_start,C,m1,H,J0,J1,J2,J3,J4,J5,JA,JB,JC,JD,JJ,JK,JN,#
2015-06-11 00:01:16,0.01,0.21,0.00,27.80,31.50,33.85,4.66,22.43,1015.15,2018.98,3412.00,3224.06,3503.07,349.77,341.43,16.61,0000 0000 0000 0000 000000
2015-06-11 00:06:17,0.00,0.21,0.00,27.80,31.50,33.87,4.67,22.42,1015.15,2018.98,3412.00,3224.02,3503.04,350.29,341.67,16.64,0000 0000 0000 0000 000000
2015-06-11 00:11:18,-0.00,0.21,0.00,27.78,31.50,33.87,4.69,22.42,1015.13,2018.96,3412.00,3224.02,3503.00,350.00,341.82,16.66,0000 0000 0000 0000 000000
2015-06-11 00:16:20,-0.00,0.21,0.00,27.77,31.50,33.88,4.67,22.52,1015.12,2018.96,3411.98,3224.01,3503.00,350.01,341.85,16.69,0000 0000 0000 0000 000000
2015-06-11 00:21:21,0.00,0.21,0.00,27.76,31.50,33.89,4.64,22.48,1015.12,2018.97,3411.96,3224.00,3503.00,349.48,340.98,16.72,0000 0000 0000 0000 000000
2015-06-11 00:26:22,-0.00,0.21,0.00,27.75,31.50,33.89,4.73,22.54,1015.14,2018.95,3411.90,3224.00,3503.00,349.85,341.61,16.75,0000 0000 0000 0000 000000
2015-06-11 00:31:23,0.01,0.21,0.00,27.75,31.50,33.89,4.69,22.53,1015.15,2018.94,3411.42,3223.99,3502.99,349.98,341.60,16.78,0000 0000 0000 0000 000000
2015-06-11 00:36:24,0.01,0.21,0.00,27.74,31.50,33.90,4.66,22.51,1015.15,2018.96,3411.30,3223.99,3502.99,349.41,341.14,16.81,0000 0000 0000 0000 000000
2015-06-11 00:41:25,-0.00,0.21,0.00,27.73,31.49,33.92,4.66,22.43,1015.14,2018.95,3411.10,3223.99,3502.99,350.06,341.76,16.84,0000 0000 0000 0000 000000
2015-06-11 00:46:26,0.00,0.21,0.00,27.72,31.48,33.91,4.68,22.55,1015.13,2018.97,3411.11,3223.99,3502.99,350.58,342.42,16.87,0000 0000 0000 0000 000000
2015-06-11 00:51:27,-0.01,0.21,0.00,27.70,31.47,33.90,4.63,22.47,1015.14,2018.98,3411.41,3224.00,3502.99,349.66,341.36,16.90,0000 0000 0000 0000 000000
2015-06-11 00:56:28,0.00,0.21,0.00,27.68,31.47,33.90,4.64,22.49,1015.15,2018.98,3411.24,3224.00,3502.99,349.77,341.74,16.93,0000 0000 0000 0000 000000
2015-06-11 01:01:30,0.00,0.21,0.00,27.67,31.47,33.92,4.67,22.40,1015.12,2018.99,3411.13,3224.00,3502.99,350.16,341.94,16.96,0000 0000 0000 0000 000000
2015-06-11 01:06:31,0.00,0.21,0.00,27.67,31.47,33.91,4.67,22.53,1015.11,2018.98,3411.05,3224.00,3502.99,349.95,341.70,16.99,0000 0000 0000 0000 000000
2015-06-11 01:11:32,-0.00,0.21,0.00,27.66,31.47,33.91,4.68,22.53,1015.04,2018.98,3411.03,3223.99,3502.97,350.32,341.94,17.02,0000 0000 0000 0000 000000
2015-06-11 01:16:33,0.00,0.21,0.00,27.65,31.45,33.91,4.69,22.52,1014.96,2018.99,3411.00,3223.99,3502.98,350.04,341.84,17.05,0000 0000 0000 0000 000000
2015-06-11 01:21:34,0.00,0.21,0.00,27.65,31.45,33.91,4.69,22.57,1014.78,2018.99,3411.00,3223.99,3502.98,350.28,342.01,17.08,0000 0000 0000 0000 000000
2015-06-11 01:26:35,0.00,0.21,0.00,27.64,31.45,33.91,4.65,22.48,1014.71,2018.99,3411.00,3223.99,3502.97,350.22,341.82,17.10,0000 0000 0000 0000 000000
2015-06-11 01:31:36,0.00,0.21,0.00,27.62,31.44,33.90,4.72,22.65,1014.70,2018.99,3411.00,3223.99,3502.98,350.02,341.53,17.13,0000 0000 0000 0000 000000
2015-06-11 01:36:38,0.00,0.21,0.00,27.62,31.43,33.89,4.69,22.60,1014.68,2018.99,3411.00,3223.99,3502.99,350.52,342.24,17.16,0000 0000 0000 0000 000000
2015-06-11 01:41:39,0.00,0.21,0.00,27.62,31.42,33.89,4.64,22.55,1014.67,2018.99,3411.00,3223.99,3502.99,350.25,341.94,17.19,0000 0000 0000 0000 000000
2015-06-11 01:46:40,0.00,0.21,0.00,27.61,31.42,33.87,4.66,22.58,1014.67,2018.99,3411.01,3224.00,3502.99,349.68,341.35,17.22,0000 0000 0000 0000 000000
2015-06-11 01:51:41,0.00,0.21,0.00,27.60,31.42,33.86,4.63,22.48,1014.66,2018.99,3411.01,3224.00,3502.99,349.71,341.71,17.25,0000 0000 0000 0000 000000
2015-06-11 01:56:42,0.00,0.21,0.00,27.60,31.40,33.84,4.70,22.46,1014.66,2019.00,3410.99,3224.00,3502.99,350.35,342.24,17.28,0000 0000 0000 0000 000000
2015-06-11 02:01:43,0.00,0.21,0.00,27.59,31.40,33.86,4.69,22.54,1014.66,2019.00,3410.99,3224.00,3502.99,350.06,341.71,17.31,0000 0000 0000 0000 000000
2015-06-11 02:06:44,0.00,0.21,0.00,27.59,31.40,33.85,4.67,22.47,1014.66,2019.01,3410.99,3224.00,3502.99,350.09,341.81,17.34,0000 0000 0000 0000 000000
2015-06-11 02:11:45,0.00,0.21,0.00,27.59,31.40,33.83,4.67,22.59,1014.66,2019.03,3410.99,3224.00,3502.99,349.72,341.42,17.37,0000 0000 0000 0000 000000
2015-06-11 02:16:47,-0.00,0.21,0.00,27.58,31.39,33.82,4.69,22.54,1014.66,2019.03,3410.99,3224.00,3502.99,350.13,341.91,17.40,0000 0000 0000 0000 000000
2015-06-11 02:21:48,0.00,0.21,0.00,27.57,31.37,33.81,4.68,22.45,1014.66,2019.04,3410.99,3224.00,3502.99,349.99,341.73,17.43,0000 0000 0000 0000 000000
2015-06-11 02:26:49,0.00,0.21,0.00,27.57,31.37,33.79,4.68,22.49,1014.66,2019.05,3410.99,3224.00,3502.99,350.32,342.06,17.46,0000 0000 0000 0000 000000
2015-06-11 02:31:50,-0.00,0.21,0.00,27.58,31.37,33.79,4.66,22.52,1014.66,2019.02,3410.99,3224.00,3502.99,350.01,341.80,17.48,0000 0000 0000 0000 000000
2015-06-11 02:36:51,0.00,0.21,0.00,27.58,31.37,33.80,4.75,22.46,1014.66,2019.05,3410.98,3224.00,3502.99,350.77,342.25,17.51,0000 0000 0000 0000 000000
2015-06-11 02:41:53,0.01,0.21,0.00,27.58,31.37,33.77,4.66,22.48,1014.65,2019.09,3410.99,3224.00,3502.99,349.78,341.76,17.54,0000 0000 0000 0000 000000
2015-06-11 02:46:54,0.01,0.21,0.00,27.58,31.37,33.78,4.72,22.54,1014.66,2019.13,3410.99,3224.02,3503.00,350.46,342.20,17.57,0000 0000 0000 0000 000000
2015-06-11 02:51:55,-0.01,0.21,0.00,27.59,31.36,33.76,4.69,22.58,1014.66,2019.13,3410.99,3224.01,3503.01,349.92,341.76,17.60,0000 0000 0000 0000 000000
2015-06-11 02:56:56,0.01,0.21,0.00,27.57,31.35,33.76,4.65,22.52,1014.66,2019.10,3410.97,3224.00,3503.00,349.96,341.73,17.63,0000 0000 0000 0000 000000
2015-06-11 03:01:57,0.01,0.21,0.00,27.57,31.35,33.75,4.65,22.52,1014.66,2019.21,3410.99,3224.00,3503.00,350.41,342.02,17.66,0000 0000 0000 0000 000000
2015-06-11 03:06:58,-0.02,0.21,0.00,27.57,31.35,33.73,4.64,22.50,1014.65,2019.11,3410.99,3224.01,3503.00,349.96,341.70,17.69,0000 0000 0000 0000 000000
2015-06-11 03:11:59,0.01,0.21,0.00,27.57,31.35,33.74,4.63,22.52,1014.66,2019.18,3410.99,3224.01,3503.00,349.97,341.50,17.72,0000 0000 0000 0000 000000
2015-06-11 03:17:01,-0.00,0.21,0.00,27.57,31.35,33.73,4.62,22.52,1014.65,2019.13,3410.99,3224.01,3503.00,349.49,341.38,17.75,0000 0000 0000 0000 000000
2015-06-11 03:22:02,0.03,0.21,0.00,27.56,31.34,33.72,4.68,22.53,1014.56,2019.32,3410.99,3224.02,3503.01,350.25,341.95,17.78,0000 0000 0000 0000 000000
2015-06-11 03:27:03,0.01,0.21,0.00,27.56,31.33,33.73,4.62,22.49,1014.61,2019.43,3410.99,3224.03,3503.01,349.81,341.50,17.81,0000 0000 0000 0000 000000
2015-06-11 03:32:04,0.01,0.21,0.00,27.57,31.32,33.72,4.74,22.64,1014.62,2019.33,3410.99,3224.04,3503.01,350.02,341.83,17.84,0000 0000 0000 0000 000000
2015-06-11 03:37:06,0.03,0.21,0.00,27.57,31.32,33.72,4.67,22.57,1014.52,2019.56,3410.99,3224.11,3503.03,350.20,341.90,17.87,0000 0000 0000 0000 000000
2015-06-11 03:42:07,-0.00,0.21,0.00,27.55,31.32,33.73,4.74,22.52,1014.33,2019.79,3411.00,3224.39,3503.14,349.91,341.38,17.90,0000 0000 0000 0000 000000
2015-06-11 03:47:08,0.01,0.21,0.00,27.55,31.32,33.71,4.67,22.53,1014.28,2019.81,3411.00,3224.26,3503.05,350.03,341.48,17.92,0000 0000 0000 0000 000000
2015-06-11 03:52:09,0.01,0.21,0.00,27.55,31.32,33.71,4.61,22.53,1014.30,2019.84,3411.00,3224.22,3503.09,349.39,341.08,17.95,0000 0000 0000 0000 000000
2015-06-11 03:57:10,0.01,0.21,0.00,27.55,31.32,33.71,4.64,22.51,1014.37,2019.87,3411.00,3224.17,3503.07,349.68,341.16,17.98,0000 0000 0000 0000 000000
2015-06-11 04:02:11,0.00,0.21,0.00,27.55,31.30,33.71,4.64,22.60,1014.54,2019.93,3411.00,3224.33,3503.13,350.37,341.90,18.01,0000 0000 0000 0000 000000
2015-06-11 04:07:12,0.01,0.21,0.00,27.55,31.30,33.70,4.65,22.51,1014.60,2019.94,3411.00,3224.23,3503.07,349.57,341.40,18.04,0000 0000 0000 0000 000000
2015-06-11 04:12:14,-0.01,0.21,0.00,27.54,31.30,33.70,4.71,22.48,1014.65,2019.94,3411.00,3224.33,3503.14,350.14,342.01,18.07,0000 0000 0000 0000 000000
2015-06-11 04:17:15,0.01,0.21,0.00,27.53,31.30,33.70,4.71,22.49,1014.66,2019.97,3411.00,3224.33,3503.19,350.45,342.14,18.10,0000 0000 0000 0000 000000
2015-06-11 04:22:17,0.00,0.22,0.00,27.53,31.30,33.68,4.68,22.48,1014.66,2019.97,3410.99,3224.24,3503.10,349.72,341.50,18.13,0000 0000 0000 0000 000000
2015-06-11 04:27:18,0.00,0.22,0.00,27.53,31.30,33.69,4.56,22.44,1014.67,2019.98,3410.98,3224.25,3503.14,349.66,341.56,18.16,0000 0000 0000 0000 000000
2015-06-11 04:32:19,0.00,0.22,0.00,27.52,31.29,33.70,4.59,22.47,1014.67,2019.97,3410.93,3224.14,3503.07,350.30,342.12,18.19,0000 0000 0000 0000 000000
2015-06-11 04:37:20,-0.00,0.22,0.00,27.52,31.28,33.68,4.64,22.38,1014.66,2019.98,3410.97,3224.14,3503.08,350.19,341.99,18.22,0000 0000 0000 0000 000000
2015-06-11 04:42:21,0.00,0.22,0.00,27.51,31.27,33.69,4.67,22.43,1014.67,2019.97,3410.86,3224.08,3503.04,350.10,341.82,18.25,0000 0000 0000 0000 000000
2015-06-11 04:47:23,0.00,0.22,0.00,27.50,31.27,33.69,4.63,22.43,1014.66,2019.97,3410.80,3224.09,3503.03,349.82,341.77,18.28,0000 0000 0000 0000 000000
2015-06-11 04:52:24,-0.00,0.22,0.00,27.50,31.27,33.68,4.63,22.43,1014.66,2019.99,3410.88,3224.19,3503.07,349.31,341.16,18.31,0000 0000 0000 0000 000000
2015-06-11 04:57:26,0.01,0.22,0.00,27.50,31.27,33.68,4.61,22.45,1014.66,2019.98,3410.77,3224.12,3503.03,349.50,341.43,18.33,0000 0000 0000 0000 000000
2015-06-11 05:02:27,-0.01,0.22,0.00,27.50,31.27,33.66,4.64,22.46,1014.66,2019.99,3410.85,3224.18,3503.04,349.77,341.70,18.36,0000 0000 0000 0000 000000
2015-06-11 05:07:28,0.00,0.22,0.00,27.50,31.26,33.68,4.73,22.41,1014.66,2019.97,3410.71,3224.14,3503.02,350.27,342.08,18.39,0000 0000 0000 0000 000000
2015-06-11 05:12:29,-0.00,0.22,0.00,27.50,31.25,33.65,4.70,22.54,1014.66,2019.98,3410.69,3224.17,3503.03,350.33,342.14,18.42,0000 0000 0000 0000 000000
2015-06-11 05:17:30,0.01,0.22,0.00,27.50,31.25,33.67,4.66,22.43,1014.66,2019.99,3410.69,3224.27,3503.05,349.80,341.67,18.45,0000 0000 0000 0000 000000
2015-06-11 05:22:31,0.01,0.22,0.00,27.50,31.25,33.64,4.74,22.48,1014.66,2019.99,3410.24,3224.12,3503.01,350.18,341.83,18.48,0000 0000 0000 0000 000000
2015-06-11 05:27:33,-0.00,0.22,0.00,27.49,31.25,33.64,4.71,22.52,1014.66,2019.99,3410.15,3224.08,3503.01,350.15,342.16,18.51,0000 0000 0000 0000 000000
2015-06-11 05:32:34,0.00,0.22,0.00,27.50,31.25,33.64,4.67,22.51,1014.66,2019.99,3410.00,3224.01,3503.00,349.58,341.53,18.54,0000 0000 0000 0000 000000
2015-06-11 05:37:36,0.00,0.22,0.00,27.50,31.25,33.64,4.58,22.46,1014.66,2019.99,3410.01,3224.06,3503.01,348.98,340.76,18.57,0000 0000 0000 0000 000000
2015-06-11 05:42:37,-0.00,0.22,0.00,27.50,31.24,33.63,4.61,22.41,1014.66,2019.99,3410.02,3224.08,3503.01,349.67,341.42,18.60,0000 0000 0000 0000 000000
2015-06-11 05:47:38,0.00,0.22,0.00,27.50,31.23,33.63,4.68,22.47,1014.66,2019.99,3410.00,3224.03,3503.00,350.04,341.82,18.63,0000 0000 0000 0000 000000
2015-06-11 05:52:39,-0.00,0.22,0.00,27.50,31.22,33.62,4.67,22.47,1014.66,2019.99,3410.00,3224.02,3503.00,350.07,341.77,18.66,0000 0000 0000 0000 000000
2015-06-11 05:57:40,0.00,0.22,0.00,27.50,31.22,33.61,4.66,22.50,1014.66,2019.99,3410.00,3224.03,3503.00,349.90,341.85,18.69,0000 0000 0000 0000 000000
2015-06-11 06:02:42,0.00,0.22,0.00,27.48,31.22,33.60,4.74,22.48,1014.65,2019.99,3410.00,3224.04,3503.00,350.61,342.23,18.72,0000 0000 0000 0000 000000
2015-06-11 06:07:43,-0.00,0.22,0.00,27.47,31.22,33.60,4.74,22.51,1014.64,2019.99,3410.00,3224.05,3503.01,350.32,342.29,18.74,0000 0000 0000 0000 000000
2015-06-11 06:12:44,-0.00,0.22,0.00,27.47,31.22,33.60,4.71,22.43,1014.65,2019.99,3410.01,3224.10,3503.01,349.70,341.55,18.77,0000 0000 0000 0000 000000
2015-06-11 06:17:46,0.00,0.22,0.00,27.48,31.22,33.60,4.67,22.38,1014.66,2019.99,3410.00,3224.11,3503.01,350.21,342.28,18.80,0000 0000 0000 0000 000000
2015-06-11 06:22:47,0.00,0.22,0.00,27.49,31.21,33.60,4.62,22.43,1014.66,2019.99,3410.00,3224.07,3503.01,350.25,341.90,18.83,0000 0000 0000 0000 000000
2015-06-11 06:27:48,0.00,0.22,0.00,27.49,31.20,33.60,4.69,22.43,1014.66,2019.99,3410.00,3224.04,3503.01,350.02,342.02,18.86,0000 0000 0000 0000 000000
2015-06-11 06:32:49,0.00,0.22,0.00,27.50,31.20,33.58,4.69,22.49,1014.66,2019.99,3409.99,3224.02,3503.00,349.76,341.59,18.89,0000 0000 0000 0000 000000
2015-06-11 06:37:50,0.00,0.22,0.00,27.50,31.20,33.59,4.68,22.45,1014.66,2019.99,3409.99,3224.02,3503.00,350.26,341.90,18.92,0000 0000 0000 0000 000000
2015-06-11 06:42:51,0.00,0.22,0.00,27.50,31.20,33.58,4.68,22.53,1014.66,2019.99,3409.99,3224.04,3503.01,349.49,341.47,18.95,0000 0000 0000 0000 000000
2015-06-11 06:47:53,-0.00,0.22,0.00,27.50,31.20,33.58,4.52,22.46,1014.66,2020.00,3409.99,3224.07,3503.00,349.36,341.58,18.98,0000 0000 0000 0000 000000
2015-06-11 06:52:54,0.00,0.22,0.00,27.51,31.20,33.57,4.76,22.58,1014.68,2020.00,3409.99,3224.11,3503.01,350.14,341.85,19.01,0000 0000 0000 0000 000000
2015-06-11 06:57:55,0.00,0.22,0.00,27.52,31.20,33.57,4.73,22.43,1014.68,2020.00,3409.99,3224.08,3503.00,350.82,342.61,19.04,0000 0000 0000 0000 000000
2015-06-11 07:02:56,-0.00,0.22,0.00,27.52,31.19,33.57,4.69,22.39,1014.68,2020.00,3410.00,3224.15,3503.02,350.23,341.91,19.07,0000 0000 0000 0000 000000
2015-06-11 07:07:58,0.00,0.22,0.00,27.53,31.19,33.56,4.74,22.42,1014.66,2020.00,3410.00,3224.13,3503.01,350.60,342.22,19.10,0000 0000 0000 0000 000000
2015-06-11 07:12:59,-0.01,0.22,0.00,27.53,31.18,33.55,4.72,22.42,1014.67,2020.00,3410.00,3224.27,3503.01,350.59,342.36,19.13,0000 0000 0000 0000 000000
2015-06-11 07:18:00,0.00,0.22,0.00,27.55,31.18,33.55,4.63,22.41,1014.68,2020.01,3410.00,3224.28,3503.03,349.73,341.68,19.15,0000 0000 0000 0000 000000
2015-06-11 07:23:02,-0.01,0.22,0.00,27.56,31.17,33.54,4.66,22.38,1014.76,2020.02,3410.00,3224.44,3503.05,350.21,341.86,19.18,0000 0000 0000 0000 000000
2015-06-11 07:28:03,-0.00,0.22,0.00,27.57,31.17,33.55,4.67,22.47,1014.75,2020.01,3410.00,3224.50,3503.06,350.08,341.70,19.21,0000 0000 0000 0000 000000
2015-06-11 07:33:04,-0.01,0.22,0.00,27.60,31.17,33.54,4.68,22.50,1014.72,2020.01,3410.00,3224.52,3503.05,349.95,341.69,19.24,0000 0000 0000 0000 000000
2015-06-11 07:38:06,-0.00,0.22,0.00,27.60,31.17,33.54,4.71,22.42,1014.74,2020.01,3410.00,3224.67,3503.07,349.67,341.28,19.27,0000 0000 0000 0000 000000
2015-06-11 07:43:07,0.00,0.22,0.00,27.61,31.17,33.53,4.68,22.44,1014.86,2020.02,3410.00,3224.67,3503.11,350.26,341.89,19.30,0000 0000 0000 0000 000000
2015-06-11 07:48:08,0.01,0.22,0.00,27.62,31.17,33.53,4.71,22.38,1014.80,2020.02,3410.00,3224.45,3503.05,349.84,341.59,19.33,0000 0000 0000 0000 000000
2015-06-11 07:53:09,-0.01,0.22,0.00,27.62,31.17,33.52,4.74,22.40,1014.96,2020.02,3410.01,3224.52,3503.06,350.54,342.41,19.36,0000 0000 0000 0000 000000
2015-06-11 07:58:10,-0.00,0.22,0.00,27.63,31.17,33.53,4.69,22.38,1014.99,2020.00,3410.00,3224.43,3503.04,350.08,341.76,19.39,0000 0000 0000 0000 000000
2015-06-11 08:03:12,-0.00,0.22,0.00,27.65,31.17,33.53,4.69,22.38,1015.03,2020.02,3410.00,3224.63,3503.07,350.46,342.19,19.42,0000 0000 0000 0000 000000
2015-06-11 08:08:13,0.03,0.22,0.00,27.67,31.17,33.52,4.58,22.38,1015.10,2020.02,3409.99,3224.20,3503.01,349.90,341.53,19.45,0000 0000 0000 0000 000000
2015-06-11 08:13:14,-0.00,0.22,0.00,27.68,31.17,33.50,4.69,22.38,1015.14,2020.01,3409.99,3224.20,3503.00,350.20,341.97,19.48,0000 0000 0000 0000 000000
2015-06-11 08:18:15,0.01,0.22,0.00,27.69,31.18,33.49,4.70,22.36,1015.15,2020.02,3409.99,3224.18,3503.00,350.29,342.16,19.51,0000 0000 0000 0000 000000
2015-06-11 08:23:16,-0.00,0.22,0.00,27.70,31.18,33.52,4.61,22.38,1015.15,2020.03,3409.98,3224.09,3503.00,349.99,341.81,19.54,0000 0000 0000 0000 000000
2015-06-11 08:28:17,0.01,0.22,0.00,27.70,31.19,33.53,4.68,22.41,1015.15,2020.01,3409.90,3224.04,3503.00,350.49,342.01,19.57,0000 0000 0000 0000 000000
2015-06-11 08:33:19,-0.01,0.22,0.00,27.70,31.19,33.52,4.60,22.36,1015.15,2020.00,3409.89,3224.05,3502.99,349.49,341.20,19.59,0000 0000 0000 0000 000000
2015-06-11 08:38:20,0.00,0.22,0.00,27.70,31.20,33.54,4.64,22.35,1015.15,2020.01,3409.96,3224.03,3502.99,349.99,341.80,19.62,0000 0000 0000 0000 000000
2015-06-11 08:43:22,-0.00,0.22,0.00,27.70,31.20,33.54,4.74,22.39,1015.15,2020.01,3409.91,3224.03,3502.99,350.66,342.49,19.65,0000 0000 0000 0000 000000
2015-06-11 08:48:23,0.00,0.22,0.00,27.70,31.20,33.53,4.70,22.35,1015.15,2020.00,3409.70,3224.02,3502.99,349.88,341.81,19.68,0000 0000 0000 0000 000000
2015-06-11 08:53:24,-0.01,0.22,0.00,27.69,31.20,33.54,4.65,22.35,1015.15,2020.00,3409.58,3224.01,3502.98,349.72,341.37,19.71,0000 0000 0000 0000 000000
2015-06-11 08:58:26,0.00,0.22,0.00,27.69,31.20,33.55,4.68,22.32,1015.15,2020.00,3409.56,3224.01,3502.99,350.19,342.08,19.74,0000 0000 0000 0000 000000
2015-06-11 09:03:27,0.00,0.22,0.00,27.69,31.20,33.56,4.68,22.34,1015.16,2020.00,3409.38,3224.01,3502.98,350.02,341.79,19.77,0000 0000 0000 0000 000000
2015-06-11 09:08:28,0.01,0.22,0.00,27.67,31.20,33.56,4.58,22.30,1015.18,2020.00,3409.20,3224.00,3502.92,350.34,342.18,19.80,0000 0000 0000 0000 000000
2015-06-11 09:13:30,-0.00,0.22,0.00,27.67,31.20,33.56,4.72,22.28,1015.30,2020.00,3409.21,3224.00,3502.92,349.92,341.70,19.83,0000 0000 0000 0000 000000
2015-06-11 09:18:31,0.00,0.22,0.00,27.65,31.20,33.55,4.57,22.32,1015.50,2020.00,3409.12,3224.00,3502.86,349.75,341.71,19.86,0000 0000 0000 0000 000000
2015-06-11 09:23:32,-0.00,0.22,0.00,27.64,31.20,33.57,4.65,22.30,1015.63,2020.00,3409.26,3224.00,3502.86,349.66,341.58,19.89,0000 0000 0000 0000 000000
2015-06-11 09:28:33,0.02,0.22,0.00,27.62,31.20,33.57,4.57,22.28,1015.64,2020.00,3409.09,3224.00,3502.60,350.15,342.21,19.92,0000 0000 0000 0000 000000
2015-06-11 09:33:35,-0.01,0.22,0.00,27.61,31.20,33.58,4.70,22.32,1015.64,2020.00,3409.06,3223.99,3502.49,350.36,342.26,19.95,0000 0000 0000 0000 000000
2015-06-11 09:38:36,-0.01,0.22,0.00,27.59,31.20,33.57,4.60,22.27,1015.64,2020.00,3409.23,3224.00,3502.81,350.01,341.91,19.98,0000 0000 0000 0000 000000
2015-06-11 09:43:37,-0.01,0.22,0.00,27.57,31.20,33.58,4.67,22.32,1015.64,2020.00,3409.63,3224.00,3502.92,350.67,342.76,20.00,0000 0000 0000 0000 000000
2015-06-11 09:48:38,0.00,0.22,0.00,27.55,31.20,33.57,4.67,22.35,1015.64,2020.00,3409.76,3224.02,3502.96,350.06,342.03,20.03,0000 0000 0000 0000 000000
2015-06-11 09:53:39,0.00,0.22,0.00,27.53,31.18,33.58,4.68,22.37,1015.60,2020.00,3409.75,3224.01,3502.97,350.05,342.17,20.06,0000 0000 0000 0000 000000
2015-06-11 09:58:40,-0.00,0.22,0.00,27.51,31.17,33.58,4.62,22.35,1015.49,2020.00,3409.70,3224.01,3502.97,349.58,341.74,20.09,0000 0000 0000 0000 000000
2015-06-11 10:03:41,0.00,0.22,0.00,27.49,31.17,33.59,4.68,22.35,1015.62,2020.00,3409.74,3224.01,3502.98,349.90,342.07,20.12,0000 0000 0000 0000 000000
2015-06-11 10:08:43,0.00,0.22,0.00,27.45,31.17,33.59,4.69,22.36,1015.63,2020.00,3409.83,3224.04,3502.99,350.09,342.25,20.15,0000 0000 0000 0000 000000
2015-06-11 10:13:44,-0.01,0.22,0.00,27.43,31.15,33.61,4.67,22.32,1015.64,2020.00,3409.88,3224.04,3502.99,350.58,342.80,20.18,0000 0000 0000 0000 000000
2015-06-11 10:18:45,0.00,0.22,0.00,27.40,31.15,33.63,4.66,22.37,1015.64,2020.00,3409.88,3224.04,3502.99,349.88,342.19,20.21,0000 0000 0000 0000 000000
2015-06-11 10:23:46,-0.01,0.22,0.00,27.36,31.14,33.62,4.63,22.35,1015.64,2020.00,3409.94,3224.16,3502.99,349.70,342.14,20.24,0000 0000 0000 0000 000000
2015-06-11 10:28:48,0.00,0.22,0.00,27.34,31.12,33.62,4.66,22.39,1015.64,2020.00,3409.92,3224.23,3502.99,350.39,342.85,20.27,0000 0000 0000 0000 000000
2015-06-11 10:33:49,-0.02,0.22,0.00,27.31,31.12,33.62,4.69,22.32,1015.63,2020.01,3409.96,3224.59,3503.00,350.28,342.65,20.30,0000 0000 0000 0000 000000
2015-06-11 10:38:50,-0.00,0.22,0.00,27.29,31.10,33.63,4.73,22.32,1015.64,2020.07,3409.99,3224.94,3503.15,350.30,342.59,20.33,0000 0000 0000 0000 000000
2015-06-11 10:43:52,-0.01,0.22,0.00,27.26,31.10,33.63,4.68,22.34,1015.64,2020.08,3409.99,3224.99,3503.21,349.90,342.25,20.36,0000 0000 0000 0000 000000
2015-06-11 10:48:53,-0.00,0.22,0.00,27.22,31.08,33.63,4.73,22.27,1015.65,2020.10,3409.99,3224.98,3503.24,350.02,342.52,20.39,0000 0000 0000 0000 000000
